Find Starlink 30074

NORAD ID: 57508 Int'l Des: 2023-113 Owner: SPXS Country: US Constellation: starlink operational
LEOCIRCULAR

Current View

Loading 3D Globe...

About Starlink 30074

Starlink 30074 (NORAD 57508) is a starlink constellation satellite (v2 mini) launched Aug 7, 2023 by SPXS of US. It operates in LEO, CIRCULAR orbit with a mass of 730.00 kg.

About Starlink 30074

Description loading...

Upcoming Passes

Passes for default location (London). Set your location on the main map for personalized predictions.

Altitude History

Loading altitude history...

Two-Line Element Set

1 57508U 23113P 26174.94389451 .00005869 00000-0 22271-3 0 9993
2 57508 43.0037 136.1467 0001259 250.6788 109.3927 15.27566365159715
Epoch: Jun 23, 2026 • Age: 12 hours

Current Status

Altitude 484.0 km
Velocity 7.62 km/s
Sub-Earth Point -9.01°S, 106.7°W
Launch Date Aug 7, 2023
Age 2.8 years
Type internet

Technical Details

Classification Payload
Mass 730.00 kg
Dry Mass 700.00 kg
Total Mass 730.00 kg
Length 0.30 m
Diameter 4.10 m
Span 29.00 m
Shape Box + pan
Manufacturer SPXS
Bus Type Starlink V2M
Phase Status In Orbit
Owner/State SPXS/US

Most Searched